W3OW Weather Reports


Display with metric or nautical units.
time (UTC)temp
F
wind
direction
speed
MPH
gust
MPH
rain 1hr
in
rain 24hr
in
rain mn
in
humidity
%
barometer
mb
20260509173037 65 24 1.0 5.0 0.00 0.00 0.00 57 1010.8
20260509171519 65 333 0.0 8.0 0.00 0.00 0.00 58 1010.9
20260509170101 65 113 2.0 4.0 0.00 0.00 0.00 55 1011.2
20260509170007 65 77 2.0 4.0 0.00 0.00 0.00 55 1011.1
20260509164545 65 295 1.0 5.0 0.00 0.00 0.00 53 1011.0
20260509163026 65 98 2.0 7.0 0.00 0.00 0.00 54 1010.7
20260509161503 65 25 1.0 5.0 0.00 0.00 0.00 54 1010.8
20260509160046 65 76 1.0 4.0 0.00 0.00 0.00 55 1011.0
20260509154524 64 63 2.0 8.0 0.00 0.00 0.00 54 1011.0
20260509153020 64 15 2.0 8.0 0.00 0.00 0.00 56 1011.0
20260509151555 64 60 2.0 6.0 0.00 0.00 0.00 55 1011.2
20260509150037 62 55 1.0 3.0 0.00 0.00 0.00 56 1011.3
20260509144522 61 157 1.0 3.0 0.00 0.00 0.00 57 1011.5
20260509143047 60 117 0.0 1.0 0.00 0.00 0.00 60 1011.6
20260509141531 60 195 0.0 5.0 0.00 0.00 0.00 61 1011.8
20260509140005 60 213 0.0 1.0 0.00 0.00 0.00 62 1011.4
20260509134606 59 243 0.0 3.0 0.00 0.00 0.00 62 1011.3
20260509133024 59 210 0.0 1.0 0.00 0.00 0.00 63 1011.3
20260509131511 58 215 0.0 4.0 0.00 0.00 0.00 64 1011.5
20260509130056 58 115 1.0 5.0 0.00 0.00 0.00 67 1011.5
20260509124532 57 217 1.0 4.0 0.00 0.00 0.00 70 1011.5
20260509123011 56 34 1.0 2.0 0.00 0.00 0.00 71 1011.2
20260509121608 56 215 0.0 3.0 0.00 0.00 0.00 71 1011.6
20260509120033 56 200 0.0 2.0 0.00 0.00 0.00 70 1011.4
20260509114527 55 118 0.0 2.0 0.00 0.00 0.00 69 1011.3
20260509113052 55 39 0.0 2.0 0.00 0.00 0.00 70 1011.3
20260509111545 54 336 0.0 1.0 0.00 0.00 0.00 70 1011.2
20260509110012 53 228 0.0 1.0 0.00 0.00 0.00 72 1011.1
20260509104554 53 228 0.0 1.0 0.00 0.00 0.00 71 1011.0
20260509103047 53 228 0.0 1.0 0.00 0.00 0.00 69 1010.7
20260509101532 53 228 0.0 0.0 0.00 0.00 0.00 70 1010.8
20260509100059 54 139 0.0 1.0 0.00 0.00 0.00 67 1010.8
20260509100004 54 139 0.0 1.0 0.00 0.00 0.00 66 1010.8
20260509094547 54 283 0.0 1.0 0.00 0.00 0.00 65 1010.7
20260509093032 54 283 0.0 1.0 0.00 0.00 0.00 65 1010.7
20260509091521 54 217 0.0 2.0 0.00 0.00 0.00 64 1010.8
20260509084546 54 229 0.0 3.0 0.00 0.00 0.00 64 1010.9
20260509083028 54 193 0.0 3.0 0.00 0.00 0.00 64 1011.0
20260509081506 54 193 1.0 4.0 0.00 0.00 0.00 64 1011.0
20260509080049 54 191 2.0 5.0 0.00 0.00 0.00 64 1010.9
20260509074542 54 210 1.0 4.0 0.00 0.00 0.00 66 1011.0
20260509073014 54 176 1.0 2.0 0.00 0.00 0.00 66 1011.1
20260509071600 54 152 0.0 4.0 0.00 0.00 0.00 66 1011.0
20260509070039 54 224 1.0 5.0 0.00 0.00 0.00 66 1011.1
20260509064520 53 220 0.0 3.0 0.00 0.00 0.00 67 1011.2
20260509063004 53 226 0.0 3.0 0.00 0.00 0.00 69 1011.3
20260509061544 51 173 0.0 0.0 0.00 0.00 0.00 73 1011.4
20260509060036 51 174 0.0 0.0 0.00 0.00 0.00 77 1011.5
20260509054508 50 137 0.0 0.0 0.00 0.00 0.00 79 1011.7
20260509053050 51 136 0.0 0.0 0.00 0.00 0.00 77 1011.7
20260509051525 52 136 0.0 0.0 0.00 0.00 0.00 72 1011.7
20260509050006 50 286 0.0 1.0 0.00 0.00 0.00 77 1011.7
20260509044540 50 286 0.0 0.0 0.00 0.00 0.00 76 1011.9
20260509043020 49 286 0.0 1.0 0.00 0.00 0.00 80 1011.8
20260509041618 48 286 0.0 0.0 0.00 0.00 0.00 80 1011.8
20260509041503 48 286 0.0 0.0 0.00 0.00 0.00 80 1011.8
20260509040018 49 286 0.0 0.0 0.00 0.00 0.00 80 1011.9
20260509034556 50 286 0.0 0.0 0.00 0.00 0.00 79 1011.9
20260509033039 50 286 0.0 0.0 0.00 0.00 0.00 78 1011.9
20260509031534 50 286 0.0 1.0 0.00 0.00 0.00 78 1012.0
20260509030005 51 286 0.0 0.0 0.00 0.00 0.00 78 1012.1
20260509024543 52 286 0.0 0.0 0.00 0.00 0.00 75 1012.2
20260509023034 53 286 0.0 0.0 0.00 0.00 0.00 73 1012.2
20260509021512 54 286 0.0 1.0 0.00 0.00 0.00 71 1012.2
20260509020059 55 296 0.0 0.0 0.00 0.00 0.00 68 1012.1
20260509014541 56 296 0.0 1.0 0.00 0.00 0.00 67 1012.2
20260509013037 57 296 0.0 1.0 0.00 0.00 0.00 60 1012.2
20260509011509 58 294 0.0 1.0 0.00 0.00 0.00 56 1012.1
20260509010054 60 294 0.0 0.0 0.00 0.00 0.00 53 1012.0
20260509004536 61 294 0.0 0.0 0.00 0.00 0.00 51 1011.9
20260509003018 62 295 0.0 1.0 0.00 0.00 0.00 50 1011.8
20260509001557 63 296 0.0 1.0 0.00 0.00 0.00 51 1011.7
20260509000037 64 4 0.0 0.0 0.00 0.00 0.00 43 1011.7
20260508234530 64 4 0.0 0.0 0.00 0.00 0.00 46 1011.5
20260508233010 65 4 0.0 0.0 0.00 0.00 0.00 41 1011.4
20260508231551 66 4 0.0 1.0 0.00 0.00 0.00 40 1011.3
20260508230041 67 4 0.0 2.0 0.00 0.00 0.00 40 1011.2
20260508224523 68 6 0.0 4.0 0.00 0.00 0.00 36 1011.3
20260508223055 68 302 1.0 7.0 0.00 0.00 0.00 35 1011.2
20260508221537 69 267 1.0 4.0 0.00 0.00 0.00 35 1011.1
20260508220026 68 309 2.0 6.0 0.00 0.00 0.00 36 1011.3
20260508214557 68 276 1.0 5.0 0.00 0.00 0.00 36 1011.3
20260508213043 69 308 3.0 9.0 0.00 0.00 0.00 33 1011.4
20260508211535 70 302 5.0 10.0 0.00 0.00 0.00 32 1011.3
20260508210059 69 293 3.0 8.0 0.00 0.00 0.00 33 1011.3
20260508210004 68 295 3.0 8.0 0.00 0.00 0.00 32 1011.3
20260508204548 68 288 5.0 9.0 0.00 0.00 0.00 33 1011.4
20260508203022 68 284 5.0 10.0 0.00 0.00 0.00 33 1011.4
20260508201503 69 287 8.0 15.0 0.00 0.00 0.00 31 1011.6
20260508200052 70 292 5.0 11.0 0.00 0.00 0.00 30 1011.7
20260508194530 69 297 7.0 15.0 0.00 0.00 0.00 33 1011.8
20260508193150 69 259 8.0 19.0 0.00 0.00 0.00 32 1012.0
20260508193007 69 290 8.0 19.0 0.00 0.00 0.00 32 1012.1
20260508191545 69 292 10.0 18.0 0.00 0.00 0.00 31 1012.4
20260508190024 68 302 8.0 16.0 0.00 0.00 0.00 37 1012.6
20260508184508 68 289 12.0 18.0 0.00 0.00 0.00 32 1012.9
20260508183107 67 319 7.0 19.0 0.00 0.00 0.00 37 1012.9
20260508181536 67 288 9.0 18.0 0.00 0.00 0.00 33 1013.0
20260508180013 66 283 8.0 19.0 0.00 0.00 0.00 36 1013.2
20260508174549 66 271 9.0 17.0 0.00 0.00 0.00 36 1013.4